World > North America > United States > Ohio > La Rue  

La Rue, OH Hourly Weather Updates

Feedback E-mail the Weather

Quick Clicks

La Rue, OH Weather Maps

°F °C°F °C
La Rue Weather Map
UTC Time: 4/16/2024, 21:23
Your Time:

La Rue, OH Regional Weather

Expires:202404162200;;861398
ASUS41 KCLE 162112
RWRCLE
OHIO REGIONAL WEATHER ROUNDUP
NATIONAL WEATHER SERVICE WILMINGTON, OH
500 PM EDT TUE APR 16 2024

NOTE: "FAIR" INDICATES FEW OR NO CLOUDS BELOW 12,000 FEET WITH NO
SIGNIFICANT WEATHER AND/OR OBSTRUCTIONS TO VISIBILITY.


OHZ036-037-039>041-045>050-054>059-063>069-073>076-082>088-162200-
  CENTRAL AND SOUTHEAST OHIO
  
CITY           SKY/WX    TMP DP  RH WIND       PRES   REMARKS
COLUMBUS       PTSUNNY   83  58  42 S12       29.97F                  
OSU AIRPORT    FAIR      85  59  41 SE10G16   29.96F                  
BOLTON FIELD   MOSUNNY   82  61  47 SW12G21   29.98F                  
RICKENBACK AFB FAIR      84  60  43 SW3       29.96F                  
NEWARK         FAIR      83  57  41 VRB3      29.97F                  
MARION         FAIR      80  51  36 SE9       29.98F                  
LANCASTER      FAIR      84  57  39 SW8       29.97F                  
ZANESVILLE     FAIR      84  48  28 CALM      29.99F                  
NEW PHILLY     CLOUDY    80  43  26 SE5       30.02F                  
$$
  

SKY/WX - Weather  TMP - Temperature  DP - Dew Point  RH - Humidity
WIND - Wind Direction/Speed PRES - Barometric Pressure VSB - Visibility
WCI - Wind Chill Index E13G22 Wind - East Wind 13 mph/Gusts of 22 mph

Trending Headlines

Trending Entertainment Headlines

La Rue Radar Loop

Use the map search tool if you want to place a location marker on the radar map...

La Rue Quick Facts

National Two Day Weather Forecast


E-mail the La Rue Weather Forecast

Voice your opinion or tell us about page issues...